Radiation Dose at Monitoring Post of Fukushima Daini Nuclear Power Station
Date,Time,MP-1(microSv/h),MP-2(microSv/h),MP-3(microSv/h),MP-4(microSv/h),MP-5(microSv/h),MP-6(microSv/h),MP-7(microSv/h),Wind Direction,Wind Velocity(m/s),Rain
2020/11/28,00:00,0.177,0.158,0.261,0.246,0.242,0.140,0.086,south,2.6,No
2020/11/28,00:10,0.177,0.158,0.260,0.247,0.242,0.141,0.086,south,2.1,No
2020/11/28,00:20,0.177,0.160,0.262,0.247,0.240,0.140,0.085,south,2.2,No
2020/11/28,00:30,0.178,0.158,0.260,0.246,0.242,0.141,0.085,south,2.3,No
2020/11/28,00:40,0.177,0.158,0.260,0.247,0.240,0.141,0.085,south,2.6,No
2020/11/28,00:50,0.177,0.159,0.260,0.247,0.241,0.140,0.085,south,3.2,No
2020/11/28,01:00,0.179,0.159,0.262,0.246,0.241,0.140,0.085,southwest,3.2,No
2020/11/28,01:10,0.177,0.159,0.260,0.247,0.240,0.140,0.084,south-southwest,2.7,No
2020/11/28,01:20,0.176,0.159,0.261,0.247,0.241,0.140,0.085,southwest,2.4,No
2020/11/28,01:30,0.177,0.158,0.261,0.246,0.240,0.142,0.085,southwest,3.0,No
2020/11/28,01:40,0.176,0.160,0.259,0.246,0.240,0.140,0.085,southwest,2.7,No
2020/11/28,01:50,0.178,0.159,0.261,0.247,0.241,0.140,0.085,west-southwest,2.6,No
2020/11/28,02:00,0.177,0.159,0.261,0.246,0.239,0.140,0.085,southwest,1.1,No
2020/11/28,02:10,0.178,0.159,0.260,0.246,0.242,0.141,0.085,-,CALM,No
2020/11/28,02:20,0.177,0.159,0.261,0.248,0.241,0.141,0.085,southwest,1.0,No
2020/11/28,02:30,0.177,0.159,0.261,0.246,0.241,0.141,0.086,southwest,1.6,No
2020/11/28,02:40,0.177,0.159,0.260,0.247,0.242,0.142,0.086,south-southwest,1.3,No
2020/11/28,02:50,0.178,0.159,0.261,0.248,0.240,0.141,0.086,south,1.3,No
2020/11/28,03:00,0.177,0.159,0.263,0.247,0.241,0.140,0.086,south-southeast,1.4,No
2020/11/28,03:10,0.178,0.159,0.261,0.246,0.240,0.140,0.086,southeast,0.7,No
2020/11/28,03:20,0.177,0.158,0.261,0.246,0.241,0.140,0.085,south-southeast,0.6,No
2020/11/28,03:30,0.177,0.159,0.261,0.247,0.241,0.141,0.085,-,CALM,No
2020/11/28,03:40,0.176,0.158,0.260,0.246,0.240,0.140,0.085,-,CALM,No
2020/11/28,03:50,0.178,0.159,0.262,0.247,0.242,0.141,0.085,south,0.6,No
2020/11/28,04:00,0.177,0.159,0.261,0.246,0.243,0.141,0.086,northwest,0.9,No
2020/11/28,04:10,0.178,0.159,0.261,0.246,0.242,0.141,0.086,northwest,1.7,No
2020/11/28,04:20,0.177,0.159,0.262,0.248,0.240,0.141,0.085,northwest,3.0,No
2020/11/28,04:30,0.178,0.159,0.262,0.247,0.241,0.141,0.085,west,1.2,No
2020/11/28,04:40,0.178,0.159,0.261,0.245,0.240,0.141,0.086,south-southeast,0.8,No
2020/11/28,04:50,0.177,0.160,0.262,0.247,0.243,0.142,0.086,south-southeast,0.6,No
2020/11/28,05:00,0.177,0.159,0.262,0.247,0.241,0.142,0.087,south,1.8,No
2020/11/28,05:10,0.178,0.159,0.260,0.247,0.241,0.141,0.085,south,2.5,No
2020/11/28,05:20,0.177,0.159,0.262,0.248,0.242,0.141,0.086,south,2.5,No
2020/11/28,05:30,0.178,0.159,0.262,0.249,0.241,0.141,0.086,south,3.5,No
2020/11/28,05:40,0.178,0.159,0.261,0.248,0.242,0.141,0.086,south,3.0,No
2020/11/28,05:50,0.178,0.159,0.262,0.247,0.242,0.141,0.086,southwest,3.0,No
2020/11/28,06:00,0.177,0.159,0.261,0.248,0.241,0.141,0.086,southwest,2.0,No
2020/11/28,06:10,0.177,0.159,0.261,0.247,0.243,0.142,0.086,west,1.2,No
2020/11/28,06:20,0.178,0.160,0.262,0.247,0.241,0.141,0.086,west-northwest,1.6,No
2020/11/28,06:30,0.177,0.160,0.262,0.247,0.242,0.141,0.086,north-northwest,3.9,No
2020/11/28,06:40,0.178,0.160,0.261,0.247,0.241,0.141,0.086,north-northwest,5.3,No
2020/11/28,06:50,0.178,0.160,0.261,0.247,0.242,0.142,0.087,north-northwest,6.9,No
2020/11/28,07:00,0.179,0.159,0.262,0.248,0.242,0.142,0.087,north-northwest,6.0,No
2020/11/28,07:10,0.178,0.161,0.262,0.247,0.242,0.141,0.086,north-northwest,7.3,No
2020/11/28,07:20,0.178,0.159,0.262,0.247,0.243,0.142,0.086,northwest,9.6,No
2020/11/28,07:30,0.179,0.159,0.261,0.247,0.241,0.141,0.085,northwest,6.4,No
2020/11/28,07:40,0.178,0.159,0.261,0.247,0.242,0.141,0.086,north-northwest,6.2,No
2020/11/28,07:50,0.178,0.159,0.260,0.247,0.241,0.142,0.086,north-northwest,9.3,No
2020/11/28,08:00,0.178,0.158,0.260,0.246,0.241,0.140,0.085,north-northwest,9.8,No
2020/11/28,08:10,0.177,0.158,0.260,0.246,0.240,0.140,0.085,northwest,8.1,No
2020/11/28,08:20,0.177,0.159,0.260,0.246,0.240,0.141,0.086,northwest,8.4,No
2020/11/28,08:30,0.179,0.159,0.262,0.247,0.242,0.141,0.085,north-northwest,9.3,No
2020/11/28,08:40,0.176,0.159,0.260,0.247,0.241,0.141,0.086,northwest,7.3,No
2020/11/28,08:50,0.178,0.158,0.260,0.245,0.241,0.140,0.085,northwest,8.4,No
2020/11/28,09:00,0.178,0.158,0.261,0.247,0.242,0.140,0.085,north-northwest,10.1,No
2020/11/28,09:10,0.178,0.159,0.260,0.245,0.241,0.140,0.085,northwest,9.8,No
2020/11/28,09:20,0.177,0.159,0.261,0.246,0.241,0.141,0.086,northwest,10.3,No
2020/11/28,09:30,0.178,0.159,0.261,0.247,0.241,0.140,0.085,north-northwest,11.2,No
2020/11/28,09:40,0.177,0.158,0.262,0.246,0.241,0.140,0.085,north-northwest,9.0,No
2020/11/28,09:50,0.178,0.158,0.262,0.246,0.242,0.140,0.085,north-northwest,8.8,No
2020/11/28,10:00,0.176,0.160,0.261,0.246,0.240,0.140,0.085,north-northwest,10.1,No
2020/11/28,10:10,0.177,0.159,0.262,0.248,0.241,0.141,0.085,north-northwest,9.2,No
2020/11/28,10:20,0.177,0.159,0.262,0.247,0.240,0.140,0.084,northwest,5.6,No
2020/11/28,10:30,0.177,0.158,0.263,0.247,0.241,0.140,0.085,northwest,8.1,No
2020/11/28,10:40,0.177,0.159,0.260,0.246,0.239,0.141,0.085,north-northwest,11.4,No
2020/11/28,10:50,0.176,0.159,0.260,0.247,0.241,0.141,0.084,northwest,11.1,No
2020/11/28,11:00,0.178,0.159,0.260,0.245,0.238,0.141,0.085,northwest,8.3,No
2020/11/28,11:10,0.177,0.158,0.261,0.246,0.241,0.140,0.085,northwest,10.9,No
2020/11/28,11:20,0.177,0.158,0.260,0.247,0.239,0.141,0.085,northwest,11.4,No
2020/11/28,11:30,0.176,0.159,0.260,0.246,0.241,0.141,0.085,northwest,10.7,No
2020/11/28,11:40,0.178,0.159,0.261,0.248,0.240,0.141,0.086,northwest,10.1,No
2020/11/28,11:50,0.177,0.159,0.261,0.246,0.241,0.141,0.085,northwest,10.1,No
2020/11/28,12:00,0.177,0.158,0.261,0.247,0.240,0.141,0.085,northwest,8.5,No
2020/11/28,12:10,0.177,0.159,0.262,0.246,0.240,0.141,0.085,west-northwest,7.6,No
2020/11/28,12:20,0.177,0.159,0.261,0.247,0.240,0.140,0.085,west-northwest,9.0,No
2020/11/28,12:30,0.177,0.160,0.262,0.246,0.237,0.140,0.085,west-northwest,6.8,No
2020/11/28,12:40,0.176,0.159,0.260,0.247,0.242,0.142,0.085,west-northwest,7.3,No
2020/11/28,12:50,0.178,0.159,0.263,0.245,0.240,0.140,0.085,northwest,7.9,No
2020/11/28,13:00,0.176,0.159,0.261,0.248,0.242,0.141,0.085,west-northwest,9.8,No
2020/11/28,13:10,0.178,0.159,0.262,0.247,0.241,0.142,0.085,west-northwest,10.1,No
2020/11/28,13:20,0.177,0.160,0.262,0.248,0.242,0.140,0.085,west-northwest,7.0,No
2020/11/28,13:30,0.180,0.160,0.262,0.248,0.242,0.141,0.086,west-northwest,7.0,No
2020/11/28,13:40,0.179,0.160,0.263,0.248,0.240,0.141,0.085,west,8.4,No
2020/11/28,13:50,0.177,0.159,0.262,0.247,0.241,0.141,0.087,west-northwest,8.5,No
2020/11/28,14:00,0.179,0.159,0.263,0.247,0.241,0.141,0.085,west-northwest,9.8,No
2020/11/28,14:10,0.178,0.160,0.261,0.249,0.241,0.142,0.086,northwest,6.6,No
2020/11/28,14:20,0.178,0.159,0.261,0.246,0.241,0.142,0.085,northwest,5.7,No
2020/11/28,14:30,0.178,0.160,0.262,0.249,0.242,0.142,0.085,west-northwest,5.6,No
2020/11/28,14:40,0.177,0.159,0.263,0.247,0.241,0.141,0.085,northwest,5.0,No
2020/11/28,14:50,0.177,0.159,0.262,0.247,0.243,0.141,0.085,west-northwest,5.7,No
2020/11/28,15:00,0.178,0.160,0.261,0.248,0.241,0.140,0.085,northwest,4.9,No
2020/11/28,15:10,0.178,0.159,0.262,0.247,0.242,0.141,0.085,north-northwest,3.1,No
2020/11/28,15:20,0.178,0.158,0.262,0.246,0.243,0.141,0.085,northwest,2.3,No
2020/11/28,15:30,0.178,0.160,0.261,0.248,0.241,0.141,0.085,northwest,5.6,No
2020/11/28,15:40,0.177,0.159,0.262,0.248,0.241,0.141,0.084,west-northwest,9.3,No
2020/11/28,15:50,0.178,0.159,0.261,0.248,0.242,0.140,0.085,west-northwest,6.4,No
2020/11/28,16:00,0.177,0.160,0.261,0.248,0.240,0.141,0.085,west-northwest,6.0,No
2020/11/28,16:10,0.177,0.159,0.263,0.248,0.242,0.142,0.085,west-northwest,8.4,No
2020/11/28,16:20,0.177,0.159,0.261,0.247,0.241,0.141,0.084,west-northwest,10.4,No
2020/11/28,16:30,0.177,0.160,0.260,0.248,0.241,0.141,0.085,west-northwest,12.8,No
2020/11/28,16:40,0.178,0.160,0.260,0.248,0.241,0.141,0.085,west-northwest,10.9,No
2020/11/28,16:50,0.178,0.159,0.261,0.247,0.242,0.142,0.085,west,12.6,No
2020/11/28,17:00,0.178,0.159,0.262,0.248,0.240,0.142,0.085,west-northwest,11.7,No
2020/11/28,17:10,0.177,0.159,0.262,0.248,0.240,0.141,0.085,west-northwest,9.8,No
2020/11/28,17:20,0.177,0.159,0.261,0.248,0.241,0.142,0.085,west,10.9,No
2020/11/28,17:30,0.176,0.158,0.261,0.248,0.241,0.141,0.085,west,10.0,No
2020/11/28,17:40,0.177,0.160,0.263,0.247,0.240,0.142,0.085,west-northwest,7.3,No
2020/11/28,17:50,0.178,0.160,0.262,0.249,0.241,0.141,0.084,west,5.2,No
2020/11/28,18:00,0.178,0.159,0.262,0.248,0.240,0.142,0.085,west,6.0,No
2020/11/28,18:10,0.178,0.158,0.262,0.247,0.241,0.142,0.085,west-northwest,3.7,No
2020/11/28,18:20,0.178,0.159,0.263,0.248,0.240,0.142,0.085,west-northwest,3.2,No
2020/11/28,18:30,0.178,0.159,0.260,0.248,0.242,0.141,0.085,north-northeast,0.8,No
2020/11/28,18:40,0.178,0.159,0.261,0.247,0.240,0.141,0.085,-,CALM,No
2020/11/28,18:50,0.179,0.160,0.262,0.247,0.240,0.142,0.085,north-northeast,1.7,No
2020/11/28,19:00,0.177,0.160,0.261,0.248,0.241,0.142,0.085,north-northwest,1.5,No
2020/11/28,19:10,0.177,0.159,0.261,0.247,0.241,0.140,0.085,west-northwest,2.0,No
2020/11/28,19:20,0.177,0.159,0.261,0.247,0.241,0.141,0.085,west-northwest,2.1,No
2020/11/28,19:30,0.178,0.160,0.261,0.245,0.241,0.141,0.086,-,CALM,No
2020/11/28,19:40,0.177,0.159,0.262,0.247,0.241,0.141,0.086,south-southwest,2.0,No
2020/11/28,19:50,0.177,0.159,0.261,0.248,0.241,0.142,0.085,south-southeast,1.8,No
2020/11/28,20:00,0.177,0.159,0.261,0.247,0.241,0.140,0.085,south-southwest,1.0,No
2020/11/28,20:10,0.178,0.159,0.260,0.247,0.241,0.141,0.085,west,1.3,No
2020/11/28,20:20,0.177,0.158,0.262,0.247,0.241,0.140,0.085,-,CALM,No
2020/11/28,20:30,0.177,0.159,0.262,0.247,0.241,0.141,0.085,south-southeast,2.2,No
2020/11/28,20:40,0.177,0.160,0.263,0.247,0.241,0.141,0.085,south,0.8,No
2020/11/28,20:50,0.178,0.160,0.261,0.247,0.241,0.141,0.085,south,1.7,No
2020/11/28,21:00,0.178,0.159,0.260,0.246,0.240,0.141,0.085,east-southeast,1.0,No
2020/11/28,21:10,0.177,0.159,0.262,0.247,0.239,0.141,0.086,north-northeast,1.3,No
2020/11/28,21:20,0.177,0.159,0.262,0.247,0.241,0.142,0.085,north-northwest,2.1,No
2020/11/28,21:30,0.177,0.159,0.262,0.247,0.241,0.142,0.086,north-northwest,4.7,No
2020/11/28,21:40,0.177,0.159,0.262,0.248,0.241,0.142,0.086,north,4.4,No
2020/11/28,21:50,0.177,0.159,0.262,0.247,0.240,0.141,0.086,north,3.6,No
2020/11/28,22:00,0.178,0.158,0.262,0.248,0.241,0.142,0.085,north-northwest,3.4,No
2020/11/28,22:10,0.178,0.160,0.261,0.249,0.241,0.141,0.085,north-northwest,3.3,No
2020/11/28,22:20,0.176,0.160,0.261,0.247,0.240,0.141,0.085,north-northwest,3.3,No
2020/11/28,22:30,0.178,0.159,0.262,0.247,0.240,0.142,0.086,north-northwest,3.3,No
2020/11/28,22:40,0.177,0.159,0.263,0.248,0.241,0.141,0.085,north-northwest,4.3,No
2020/11/28,22:50,0.177,0.160,0.263,0.249,0.240,0.141,0.085,west-northwest,3.5,No
2020/11/28,23:00,0.178,0.160,0.262,0.249,0.242,0.141,0.086,west-northwest,3.4,No
2020/11/28,23:10,0.177,0.159,0.261,0.247,0.240,0.142,0.085,west-northwest,2.6,No
2020/11/28,23:20,0.178,0.159,0.262,0.248,0.241,0.141,0.085,southwest,2.1,No
2020/11/28,23:30,0.177,0.159,0.261,0.247,0.240,0.140,0.086,south-southwest,2.5,No
2020/11/28,23:40,0.177,0.160,0.262,0.247,0.240,0.142,0.085,southwest,3.7,No
2020/11/28,23:50,0.178,0.159,0.262,0.248,0.240,0.141,0.086,southwest,4.9,No
